Address 0x9d30f9d302989ca1df6e4db8361fc2535997cfb7 18

My Name Tag:
Not Available

Txn Hash Method
Block
From
To
Value [Txn Fee]
0x937d3a43e9c2091aa0602863f3dd0af156f19e996191a39c78072199e50123c0Transfer159506712022-09-29 7:50:597 days 5 hrs ago0x9d30f9d302989ca1df6e4db8361fc2535997cfb7OUT 0xe810dc2bdfbc7d2f551a3d1477d0544b5a30bdab0 ETH0.00000346
0x3e9b7d62446030c448c992eeb0aeecf96c60dcfed3061a2ec81a64b92bb5aef4Transfer159506222022-09-29 7:48:437 days 5 hrs ago0x9d30f9d302989ca1df6e4db8361fc2535997cfb7OUT0x2f3c1b6a51a469051a22986aa0ddf98466cc8d3c0 ETH0.00000447
0x371f8605422e53b43e71fd1ab56df181b9ed1ea4c1f1c9f75b93ff15c70f04e6Transfer159504272022-09-29 7:39:257 days 5 hrs ago0x9d30f9d302989ca1df6e4db8361fc2535997cfb7OUT0xa2866bf21897f3c87a678322521e7d69932fed930.1 ETH0.0000021
0x4091fd599c6096abfd08bf7dfe2502cff6d7a12f0c60017bc5ab6aa535efe3fbTransfer153006682022-09-09 3:12:4527 days 10 hrs ago0x9d30f9d302989ca1df6e4db8361fc2535997cfb7OUT0xa2866bf21897f3c87a678322521e7d69932fed930.01 ETH0.0000021
0xdac0f2a589b0ae74a4367844499daa045aebbca4d60b98205ea2359ed74a7168Transfer153006242022-09-09 3:08:5127 days 10 hrs ago0xa2866bf21897f3c87a678322521e7d69932fed93 IN 0x9d30f9d302989ca1df6e4db8361fc2535997cfb70.01 ETH0.0000021
0xa8299d17e75cb84d8da51e9736aeae8cab2bcfce7d122aa9689bc10d89b2c3d1Transfer151892022022-09-05 6:20:5231 days 6 hrs ago0xa2866bf21897f3c87a678322521e7d69932fed93 IN 0x9d30f9d302989ca1df6e4db8361fc2535997cfb70.01 ETH0.0000021
0x9991ebc45a799ecaa318528ba633ee959b2137d031a917b2e8531f2f62b685acTransfer151891502022-09-05 6:18:1331 days 7 hrs ago0xa2866bf21897f3c87a678322521e7d69932fed93 IN 0x9d30f9d302989ca1df6e4db8361fc2535997cfb70.001 ETH0.0000021
0x350a92e3e46539afbfc3f45c5b3d4fe67aa491f953d9262f043da5ed8741f081Transfer139650832022-08-03 2:36:5164 days 10 hrs ago0xa2866bf21897f3c87a678322521e7d69932fed93 IN 0x9d30f9d302989ca1df6e4db8361fc2535997cfb70.01 ETH0.0000021
0x0a12f98306f3845e152a003bb57e6bed81f10571bef8c0b84fa5978734348907Transfer139650202022-08-03 2:28:2464 days 10 hrs ago0xa2866bf21897f3c87a678322521e7d69932fed93 IN 0x9d30f9d302989ca1df6e4db8361fc2535997cfb70.001 ETH0.0000021
0xf5674eb6046adc383222127276a027628b7caffa262f63555e7483f12124c063Transfer137215462022-07-18 4:03:3980 days 9 hrs ago0x9d30f9d302989ca1df6e4db8361fc2535997cfb7OUT 0xe810dc2bdfbc7d2f551a3d1477d0544b5a30bdab0 ETH0.000006597431 ETH
0x59e454cc82a20668e42f048c558e1689b769100c768f73b06e5e40ec262dcfadTransfer137215032022-07-18 3:59:3980 days 9 hrs ago0x9d30f9d302989ca1df6e4db8361fc2535997cfb7OUT0x2f3c1b6a51a469051a22986aa0ddf98466cc8d3c0 ETH0.000006609519 ETH
0xb28db6de90985a8b666be05b5e99c20de6b3913c9f3e1d0d0b70e985f4ab5fb6Transfer137214742022-07-18 3:57:0880 days 9 hrs ago0x9d30f9d302989ca1df6e4db8361fc2535997cfb7OUT0xa2866bf21897f3c87a678322521e7d69932fed931 wei0.000005623038 ETH
0x3e568d26c5e1ce1ef5252de5a371184bad87d661e5b72d8f9d0c3202360b47b4Transfer137214182022-07-18 3:52:5380 days 9 hrs ago0x9d30f9d302989ca1df6e4db8361fc2535997cfb7OUT0xa2866bf21897f3c87a678322521e7d69932fed930.02 ETH0.000005623038 ETH
0xadbbebca8f8435871c7cd4a73bcdd0c57109a5fbdce94d2bad719af4a0c85a08Transfer137213842022-07-18 3:51:5280 days 9 hrs ago0x9d30f9d302989ca1df6e4db8361fc2535997cfb7OUT0xa2866bf21897f3c87a678322521e7d69932fed930.01 ETH0.000005641761 ETH
0x3eedc2761b19b34e1d24f3605d66abf8b2723ac8df11f7e79d936f47915c25e9Transfer137213372022-07-18 3:47:5280 days 9 hrs ago0xa2866bf21897f3c87a678322521e7d69932fed93 IN 0x9d30f9d302989ca1df6e4db8361fc2535997cfb70.001 ETH0.000005616798 ETH
0xacb84df67b86c0d51107fd995505154a7c8e90264f041917da188f71e84cfeb0Transfer122342802022-06-01 10:26:20127 days 2 hrs ago0xa2866bf21897f3c87a678322521e7d69932fed93 IN 0x9d30f9d302989ca1df6e4db8361fc2535997cfb70.001 ETH0.000004492901 ETH
0x24948698fc3243864620608739106c015a08a5d43a89995c0fd98a3dfc158befTransfer118325012022-05-12 7:32:26147 days 5 hrs ago0x9d30f9d302989ca1df6e4db8361fc2535997cfb7OUT0x01e8a979e7c5a1bb5c7af02a5f11263d0af4c19e0.02 ETH0.000021174819 ETH
0x84c94550ba2fd3e40c44ab0cbecf7a45ffdcd462cc1d7460538dfb76052a563fTransfer118321162022-05-12 7:13:23147 days 6 hrs ago0x9d30f9d302989ca1df6e4db8361fc2535997cfb7OUT0x01e8a979e7c5a1bb5c7af02a5f11263d0af4c19e0.01 ETH0.000021174819 ETH
0xcb50cbf371269b18cf28795b46cdd5e56d7d562ff6bdae110f60e498d0795582Transfer114195782022-04-25 9:45:20164 days 3 hrs ago0xa2866bf21897f3c87a678322521e7d69932fed93 IN 0x9d30f9d302989ca1df6e4db8361fc2535997cfb70.002 ETH0.000004446733 ETH
0xaad2b80f940aaf8e292a39ba18a724d215659d8c82bf2684d865b70521fdd1ddTransfer114149402022-04-25 4:52:03164 days 8 hrs ago0xa2866bf21897f3c87a678322521e7d69932fed93 IN 0x9d30f9d302989ca1df6e4db8361fc2535997cfb70.001 ETH0.000004460165 ETH
0x7ae0d49ee2d37befa15d9be5a1197d4622cb37a9ae1b94c363e40802c634f6beTransfer114149052022-04-25 4:48:17164 days 8 hrs ago0xa2866bf21897f3c87a678322521e7d69932fed93 IN 0x9d30f9d302989ca1df6e4db8361fc2535997cfb70.002 ETH0.000004445231 ETH
0x8b7a5a61577d9ef41d06e5b2df9498332f7bf83d256506ab05d8c6b743ccb429Transfer114149002022-04-25 4:47:17164 days 8 hrs ago0xa2866bf21897f3c87a678322521e7d69932fed93 IN 0x9d30f9d302989ca1df6e4db8361fc2535997cfb70.001 ETH0.000004445231 ETH
0x0dc7b952dce26612790630471da64c3dbab669cbb3d4f058a192c3c517ea2e99Transfer114148932022-04-25 4:46:17164 days 8 hrs ago0xa2866bf21897f3c87a678322521e7d69932fed93 IN 0x9d30f9d302989ca1df6e4db8361fc2535997cfb70.001 ETH0.000004445231 ETH
0x71994edc15d0bf80711e13170ce1d74807ceb10c57082c831e4ef1cf95c8f8e7Transfer114148662022-04-25 4:44:16164 days 8 hrs ago0xa2866bf21897f3c87a678322521e7d69932fed93 IN 0x9d30f9d302989ca1df6e4db8361fc2535997cfb70.0001 ETH0.000004445231 ETH
0x244808534cc77e3ca1e23a082d9942654cc96aa6437638ec392ca89aa865c66fTransfer114148562022-04-25 4:42:16164 days 8 hrs ago0xa2866bf21897f3c87a678322521e7d69932fed93 IN 0x9d30f9d302989ca1df6e4db8361fc2535997cfb70.01 ETH0.000004460165 ETH
[ Download CSV Export 
Latest 4 internal transactions
Parent Txn Hash Block From To Value
0xfa74f895b43de683aa6ef1668927dec66599805ea5a6ea4b1426ccf794c27549112509592022-04-15 14:29:10173 days 22 hrs ago 0xf5de760f2e916647fd766b4ad9e85ff943ce3a2b0x9d30f9d302989ca1df6e4db8361fc2535997cfb70.1 ETH
0xc975b9e386779878fa1f6d97e45f4bb9b774b4c469cedcb83b677641e1df5bd4111944872022-04-14 11:10:16175 days 2 hrs ago 0xf5de760f2e916647fd766b4ad9e85ff943ce3a2b0x9d30f9d302989ca1df6e4db8361fc2535997cfb70.1 ETH
0xef63939f3111d87d3c74ee7e622deb87b78e58fed8743b151656be1e04cd9524110791872022-04-12 10:01:14177 days 3 hrs ago 0xf5de760f2e916647fd766b4ad9e85ff943ce3a2b0x9d30f9d302989ca1df6e4db8361fc2535997cfb70.1 ETH
0xfd6ccee85b62d2c342c2852c9f323352af84f0e9718eb5a1bf7263732681e72e110085132022-04-11 3:08:48178 days 10 hrs ago 0xf5de760f2e916647fd766b4ad9e85ff943ce3a2b0x9d30f9d302989ca1df6e4db8361fc2535997cfb70.1 ETH
[ Download CSV Export 
Latest 2 Withdrawals
L2 Txn Hash Value Token Status L1 Withdrawal Txn
0x50b81613338a69aabe7721554a404632ab1f5d426ed10caf76a9052784b9ff112021-09-30 7:46:24371 days 5 hrs ago0.011 ETHReady for Relayn/a
0x21083366687d9f5b0d6a5faf4e3e62d125c38b0021a948242913f1664f530c4b2021-09-24 12:03:55377 days 1 hr ago0.1 ETHRelayed0x38c0efe84f18876456ec7f2cbc377f27bf1ab677468de33151242c91a4555e14
[ Download CSV Export 
Loading

Contract Name:
0 ETH

Compiler Version
0

Optimization Enabled:
0 ETH

Other Settings:
-NA-
Block Transaction Gas Used Reward
Age Block Fee Address BC Fee Address Voting Power Jailed Incoming
Block Uncle Number Difficulty Gas Used Reward
Loading